Find STARLINK-38045

NORAD ID: 799501187 Int'l Des: 2026-160K Constellation: starlink operational

現在のビュー

3D地球を読み込み中...

About STARLINK-38045

STARLINK-38045 (NORAD 799501187) is a starlink constellation satellite launched Jul 9, 2026

STARLINK-38045について

説明を読み込み中...

次回通過

Passes for default location (London). Set your location on the main map for personalized predictions.

高度履歴

Loading altitude history...

軌道要素

1 99999C 2026160K 26195.41368056 .00463890 00000-0 601100-4 0 1958
2 99999 70.0024 28.5423 0009861 259.2177 102.4553 16.06515935 13
Epoch: Jul 14, 2026 • Age: 7 hours